• In Hungary
  • List of Countries
  • For 7 days
  • Water Temperature
  • Satellite Maps
  • Weather Map
  • News
  • Weather Widgets
  • user-avatar
    Login

    Hourly Weather Ostend

    Today, 23 February, Friday

    Time Temperature Precipitation Wind Pressure Humidity
    00:00 -4°C° 0 mm 7 mps 766 mmHg 67%
    01:00 -4°C° 0 mm 7 mps 766 mmHg 67%
    02:00 -4°C° 0 mm 7 mps 766 mmHg 67%
    03:00 -4°C° 0 mm 6 mps 765 mmHg 67%
    04:00 -4°C° 0 mm 6 mps 765 mmHg 67%
    05:00 -4°C° 0 mm 6 mps 766 mmHg 68%
    06:00 -4°C° 0 mm 6 mps 766 mmHg 69%
    07:00 -4°C° 0 mm 7 mps 765 mmHg 65%
    08:00 -3°C° 0 mm 7 mps 765 mmHg 61%
    09:00 -2°C° 0 mm 7 mps 765 mmHg 57%
    10:00 -1°C° 0 mm 7 mps 765 mmHg 54%
    11:00 0°C° 0 mm 8 mps 765 mmHg 51%
    12:00 +1°C° 0 mm 8 mps 765 mmHg 48%
    13:00 +1°C° 0 mm 8 mps 764 mmHg 47%
    14:00 +1°C° 0 mm 8 mps 764 mmHg 46%
    15:00 +1°C° 0 mm 8 mps 764 mmHg 46%
    16:00 0°C° 0 mm 8 mps 764 mmHg 47%
    17:00 -2°C° 0 mm 8 mps 764 mmHg 48%
    18:00 -4°C° 0 mm 8 mps 764 mmHg 49%
    19:00 -4°C° 0 mm 8 mps 764 mmHg 48%
    20:00 -5°C° 0 mm 8 mps 764 mmHg 47%
    21:00 -5°C° 0 mm 8 mps 764 mmHg 47%
    22:00 -5°C° 0 mm 8 mps 764 mmHg 46%
    23:00 -5°C° 0 mm 8 mps 764 mmHg 45%

    Tomorrow, 24 February, Saturday

    Time Temperature Precipitation Wind Pressure Humidity
    00:00 -6°C° 0 mm 8 mps 765 mmHg 43%
    01:00 -6°C° 0 mm 8 mps 764 mmHg 42%
    02:00 -6°C° 0 mm 8 mps 764 mmHg 41%
    03:00 -6°C° 0 mm 8 mps 764 mmHg 39%
    04:00 -6°C° 0 mm 8 mps 765 mmHg 38%
    05:00 -6°C° 0 mm 8 mps 765 mmHg 37%
    06:00 -6°C° 0 mm 9 mps 765 mmHg 36%
    07:00 -5°C° 0 mm 9 mps 765 mmHg 33%
    08:00 -4°C° 0 mm 9 mps 765 mmHg 30%
    09:00 -3°C° 0 mm 10 mps 765 mmHg 26%
    10:00 -2°C° 0 mm 10 mps 766 mmHg 28%
    11:00 0°C° 0 mm 10 mps 766 mmHg 29%
    12:00 +1°C° 0 mm 10 mps 766 mmHg 30%
    13:00 +2°C° 0 mm 10 mps 766 mmHg 33%
    14:00 +2°C° 0 mm 10 mps 766 mmHg 35%
    15:00 +2°C° 0 mm 10 mps 765 mmHg 38%
    16:00 +1°C° 0 mm 10 mps 766 mmHg 43%
    17:00 0°C° 0 mm 10 mps 766 mmHg 49%
    18:00 -3°C° 0 mm 10 mps 766 mmHg 54%
    19:00 -3°C° 0 mm 10 mps 767 mmHg 52%
    20:00 -4°C° 0 mm 10 mps 767 mmHg 50%
    21:00 -4°C° 0 mm 10 mps 767 mmHg 49%
    22:00 -5°C° 0 mm 10 mps 768 mmHg 49%
    23:00 -5°C° 0 mm 9 mps 768 mmHg 50%

    Day after tomorrow, 25 February, Sunday

    Time Temperature Precipitation Wind Pressure Humidity
    00:00 -5°C° 0 mm 9 mps 768 mmHg 51%
    01:00 -6°C° 0 mm 9 mps 768 mmHg 50%
    02:00 -6°C° 0 mm 9 mps 768 mmHg 48%
    03:00 -6°C° 0 mm 9 mps 769 mmHg 47%
    04:00 -6°C° 0 mm 9 mps 769 mmHg 46%
    05:00 -6°C° 0 mm 9 mps 769 mmHg 44%
    06:00 -8°C° 0 mm 9 mps 769 mmHg 42%
    07:00 -6°C° 0 mm 9 mps 770 mmHg 37%
    08:00 -6°C° 0 mm 9 mps 770 mmHg 32%
    09:00 -5°C° 0 mm 9 mps 770 mmHg 27%
    10:00 -4°C° 0 mm 9 mps 770 mmHg 25%
    11:00 -3°C° 0 mm 9 mps 770 mmHg 24%
    12:00 -1°C° 0 mm 9 mps 770 mmHg 23%
    13:00 -1°C° 0 mm 9 mps 770 mmHg 25%
    14:00 -1°C° 0 mm 9 mps 770 mmHg 27%
    15:00 -1°C° 0 mm 8 mps 770 mmHg 29%
    16:00 -2°C° 0 mm 8 mps 770 mmHg 32%
    17:00 -4°C° 0 mm 8 mps 771 mmHg 35%
    18:00 -5°C° 0 mm 8 mps 771 mmHg 38%
    19:00 -5°C° 0 mm 8 mps 771 mmHg 40%
    20:00 -6°C° 0 mm 8 mps 771 mmHg 41%
    21:00 -6°C° 0 mm 8 mps 772 mmHg 42%
    22:00 -6°C° 0 mm 8 mps 772 mmHg 44%
    23:00 -6°C° 0 mm 7 mps 772 mmHg 46%

    26 February, Monday

    Time Temperature Precipitation Wind Pressure Humidity
    00:00 -6°C° 0 mm 7 mps 772 mmHg 48%
    01:00 -7°C° 0 mm 7 mps 772 mmHg 50%
    02:00 -6°C° 0 mm 6 mps 772 mmHg 52%
    03:00 -6°C° 0 mm 6 mps 772 mmHg 54%
    04:00 -6°C° 0 mm 6 mps 772 mmHg 55%
    05:00 -6°C° 0 mm 6 mps 772 mmHg 56%
    06:00 -6°C° 0 mm 6 mps 772 mmHg 57%
    07:00 -7°C° 0 mm 7 mps 772 mmHg 55%
    08:00 -6°C° 0 mm 7 mps 772 mmHg 52%
    09:00 -6°C° 0 mm 7 mps 772 mmHg 50%
    10:00 -5°C° 0 mm 8 mps 771 mmHg 47%
    11:00 -5°C° 0 mm 8 mps 771 mmHg 43%
    12:00 -4°C° 0 mm 8 mps 771 mmHg 40%
    13:00 -4°C° 0 mm 8 mps 771 mmHg 39%
    14:00 -4°C° 0 mm 8 mps 770 mmHg 37%
    15:00 -4°C° 0 mm 8 mps 770 mmHg 36%
    16:00 -5°C° 0 mm 8 mps 770 mmHg 38%
    17:00 -4°C° 0 mm 7 mps 770 mmHg 41%
    18:00 -6°C° 0 mm 7 mps 770 mmHg 43%
    19:00 -6°C° 0 mm 7 mps 770 mmHg 44%
    20:00 -7°C° 0 mm 7 mps 770 mmHg 46%
    21:00 -7°C° 0 mm 7 mps 770 mmHg 47%
    22:00 -7°C° 0 mm 7 mps 769 mmHg 49%
    23:00 -7°C° 0 mm 7 mps 769 mmHg 51%

    27 February, Tuesday

    Time Temperature Precipitation Wind Pressure Humidity
    00:00 -7°C° 0 mm 7 mps 769 mmHg 53%
    01:00 -7°C° 0 mm 7 mps 769 mmHg 55%
    02:00 -7°C° 0 mm 7 mps 769 mmHg 56%
    03:00 -8°C° 0 mm 7 mps 768 mmHg 58%
    04:00 -8°C° 0 mm 6 mps 768 mmHg 57%
    05:00 -8°C° 0 mm 6 mps 768 mmHg 56%
    06:00 -8°C° 0 mm 6 mps 768 mmHg 54%
    07:00 -6°C° 0 mm 6 mps 767 mmHg 51%
    08:00 -6°C° 0 mm 6 mps 767 mmHg 49%
    09:00 -6°C° 0 mm 7 mps 767 mmHg 46%
    10:00 -4°C° 0 mm 7 mps 767 mmHg 42%
    11:00 -4°C° 0 mm 7 mps 766 mmHg 38%
    12:00 -3°C° 0 mm 7 mps 766 mmHg 34%
    13:00 -3°C° 0 mm 7 mps 766 mmHg 32%
    14:00 -3°C° 0 mm 7 mps 765 mmHg 30%
    15:00 -3°C° 0 mm 7 mps 765 mmHg 29%
    16:00 -4°C° 0 mm 6 mps 765 mmHg 31%
    17:00 -5°C° 0 mm 6 mps 764 mmHg 34%
    18:00 -6°C° 0 mm 5 mps 764 mmHg 36%
    19:00 -6°C° 0 mm 5 mps 764 mmHg 36%
    20:00 -6°C° 0 mm 5 mps 764 mmHg 37%
    21:00 -6°C° 0 mm 5 mps 764 mmHg 37%
    22:00 -7°C° 0 mm 4 mps 764 mmHg 37%
    23:00 -7°C° 0 mm 4 mps 764 mmHg 37%

    28 February, Wednesday

    Time Temperature Precipitation Wind Pressure Humidity
    00:00 -7°C° 0 mm 4 mps 763 mmHg 38%
    01:00 -7°C° 0 mm 4 mps 763 mmHg 37%
    02:00 -7°C° 0 mm 4 mps 763 mmHg 37%
    03:00 -6°C° 0 mm 3 mps 762 mmHg 36%
    04:00 -7°C° 0 mm 3 mps 762 mmHg 37%
    05:00 -7°C° 0 mm 3 mps 762 mmHg 37%
    06:00 -7°C° 0 mm 3 mps 762 mmHg 37%
    07:00 -7°C° 0 mm 4 mps 762 mmHg 35%
    08:00 -7°C° 0 mm 4 mps 762 mmHg 33%
    09:00 -6°C° 0 mm 5 mps 761 mmHg 31%
    10:00 -6°C° 0 mm 5 mps 761 mmHg 28%
    11:00 -5°C° 0 mm 5 mps 761 mmHg 26%
    12:00 -4°C° 0 mm 5 mps 760 mmHg 24%
    13:00 -4°C° 0 mm 6 mps 760 mmHg 23%
    14:00 -4°C° 0 mm 6 mps 759 mmHg 23%
    15:00 -6°C° 0 mm 7 mps 759 mmHg 23%
    16:00 -6°C° 0 mm 7 mps 758 mmHg 25%
    17:00 -7°C° 0 mm 7 mps 758 mmHg 27%
    18:00 -8°C° 0 mm 8 mps 758 mmHg 30%
    19:00 -8°C° 0 mm 8 mps 757 mmHg 30%
    20:00 -8°C° 0 mm 8 mps 757 mmHg 30%
    21:00 -8°C° 0 mm 8 mps 757 mmHg 30%
    22:00 -8°C° 0 mm 8 mps 756 mmHg 31%
    23:00 -9°C° 0 mm 9 mps 756 mmHg 31%
    Show more